Showing default

HYDRA-T, 62692

Orbit data source: Space-Track

HYDRA-T, 62692 is a Spanish payload satellite in SSO that was launched on Tue, 14 Jan 2025 UTC via an FALCON 9 launch vehicle from the Air Force Western Test Range (AFWTR). Payload-class satellites include a variety of spacecraft equipped with specific instruments for various scientific and technological missions. These include communications satellites like Starlink; space stations such as the ISS; scientific satellites like the Hubble; Earth observation satellites from companies like Planet Labs, Umbra, and HawkEye 360; GPS; miniature CubeSats for education and research; and military/defense satellites.

Loading next visibility...
Identifier
62692, 2025-009CM
Orbit
SSO
Country
Flag of ESES / SPN
Related business
Manufacturer
AMEA/HYDRA
Mission
Operational Amateur Communications
Bus & Motor
POCKETQUBE 1.5P, Unknown motor
Mass
0.375 kg wet, 0.25 kg dry
Launch date (UTC)
2025-01-14 (10 months ago)
Launch vehicle
FALCON 9
Launch site
Air Force Western Test Range (AFWTR)
Object type
Payload
Rocket body
Debris
Shape & HBR
Box, 0.1 m
Radar Cross Section
0.005 m², Small (<0.1 m²)

Expand to show TLE details & history
Last TLE update: 8 hours ago

TLE from 8 hours ago
0 HYDRA-T
1 62692U 25009CM  25309.19741890  .00108407  00000-0  20754-2 0  9999
2 62692  97.3958  30.8572 0003093 257.0392 103.0513 15.47649914 44962
Epoch: 2025-11-05T04:44Z
TLE epoch observation values (Epoch: 2025-11-05T04:44:16.992Z)
Latitude
-0.00004°
Longitude
-84.88714°
Altitude
427.207 km
Speed
7.655 km/s
True Right ascension
02h 03m 25s
True Declination
0° 00' 00"
Sunlit
Object was in full shadow at epoch
Visualization orbit readout
Latitude
Unknown
Longitude
Unknown
Altitude
Unknown
Speed
Unknown
Apparent Right ascension
Unknown
Apparent Declination
Unknown
Sunlit
N/A
Visualization observer readout
Local Sidereal Time
08:22:23
Azimuth
Unknown
Elevation
Unknown
Doppler factor
Unknown
Orbital elements
Apogee altitude
422.634 km
Perigee altitude
418.429 km
Semi-major axis
6,798.669 km
Eccentricity
0.00031
Inclination
97.3958°
RAAN
30.8572°
Arg. of periapsis
257.0392°
True anomaly
103.08582°
Mean anomaly
103.0513°
Eccentric anomaly
103.06856°
Mean motion
3.87175 °/min
Orbital period
92.98 mins
BSTAR
0.0020754
Loading maneuver chart data...
Computing Atmospheric mass density...
Loading historical data...
Loading historical data...
Loading historical data...
Loading historical data...
Loading historical data...
Loading historical data...
Loading historical data...

Documentation

Showing up to 5 results
|